QPF
0.04 0.03 0.03 0.04 0.06 0.07 0.11 0.17 0.13 0.10 0.06 0.03 0.03 0.03 0.02 0.02 0.03 0.04 0.05 0.04 0.04 0.03 0.04 0.04 0.04 0.05 0.06 0.06 0.06 0.06 0.05 0.05 0.04 0.03 0.02 0.01 0.01 0.01 0.02 0.05 0.07 0.05 0.05
0.06 0.05 0.04 0.04 0.05 0.06 0.06 0.08 0.09 0.10 0.08 0.05 0.03 0.03 0.02 0.03 0.04 0.04 0.03 0.04 0.05 0.05 0.05 0.05 0.06 0.07 0.07 0.06 0.06 0.06 0.05 0.04 0.03 0.02 0.01 0.01 0.01 0.01 0.01 0.02 0.04 0.05 0.07
0.11 0.08 0.05 0.04 0.03 0.04 0.05 0.04 0.04 0.04 0.05 0.05 0.05 0.04 0.04 0.04 0.03 0.04 0.04 0.03 0.04 0.06 0.08 0.09 0.08 0.08 0.09 0.08 0.06 0.04 0.04 0.03 0.02 0.02 0.02 0.01 0.01 0.01 0.01 0.01 0.02 0.02 0.03
0.15 0.13 0.07 0.04 0.04 0.04 0.05 0.05 0.05 0.04 0.04 0.06 0.05 0.04 0.03 0.03 0.03 0.03 0.03 0.04 0.05 0.05 0.08 0.10 0.10 0.10 0.10 0.09 0.07 0.05 0.03 0.03 0.03 0.02 0.02 0.01 0.01 0.02 0.02 0.02 0.02 0.02 0.02
0.16 0.14 0.10 0.06 0.05 0.05 0.08 0.10 0.12 0.09 0.07 0.07 0.05 0.04 0.04 0.04 0.04 0.04 0.04 0.05 0.07 0.09 0.09 0.09 0.11 0.13 0.13 0.11 0.09 0.06 0.04 0.04 0.04 0.03 0.02 0.01 0.01 0.02 0.02 0.02 0.02 0.03 0.03
0.16 0.13 0.09 0.06 0.05 0.04 0.05 0.08 0.11 0.12 0.14 0.11 0.09 0.07 0.05 0.05 0.05 0.05 0.04 0.06 0.06 0.07 0.09 0.09 0.09 0.11 0.13 0.12 0.09 0.06 0.04 0.03 0.03 0.03 0.03 0.02 0.01 0.01 0.01 0.01 0.01 0.02 0.02
0.11 0.11 0.08 0.06 0.06 0.07 0.07 0.09 0.11 0.11 0.14 0.13 0.11 0.07 0.04 0.05 0.04 0.05 0.06 0.06 0.05 0.04 0.05 0.05 0.05 0.06 0.08 0.10 0.09 0.06 0.04 0.03 0.03 0.03 0.02 0.02 0.01 0.02 0.02 0.02 0.02 0.03 0.03
0.10 0.10 0.10 0.07 0.05 0.07 0.09 0.10 0.09 0.10 0.12 0.11 0.08 0.05 0.04 0.04 0.05 0.06 0.05 0.04 0.03 0.03 0.03 0.03 0.03 0.04 0.06 0.07 0.07 0.06 0.05 0.04 0.04 0.02 0.02 0.02 0.01 0.01 0.01 0.02 0.03 0.04 0.03
0.11 0.12 0.11 0.07 0.06 0.07 0.10 0.11 0.09 0.11 0.10 0.09 0.08 0.08 0.09 0.08 0.07 0.06 0.05 0.04 0.02 0.02 0.02 0.02 0.03 0.05 0.05 0.05 0.05 0.05 0.04 0.04 0.03 0.02 0.02 0.01 0.01 0.01 0.01 0.01 0.02 0.04 0.03
0.09 0.09 0.09 0.10 0.10 0.08 0.09 0.10 0.09 0.09 0.11 0.11 0.11 0.10 0.09 0.07 0.05 0.04 0.03 0.02 0.03 0.02 0.02 0.01 0.01 0.02 0.04 0.05 0.05 0.04 0.04 0.03 0.03 0.03 0.02 0.02 0.01 0.01 0.01 0.01 0.02 0.04 0.04
0.07 0.07 0.08 0.10 0.10 0.08 0.05 0.07 0.09 0.09 0.10 0.10 0.10 0.09 0.07 0.06 0.06 0.04 0.02 0.03 0.03 0.02 0.02 0.01 0.02 0.02 0.02 0.03 0.04 0.05 0.05 0.04 0.04 0.03 0.03 0.02 0.02 0.02 0.01 0.01 0.02 0.04 0.04
0.06 0.07 0.13 0.17 0.16 0.10 0.06 0.07 0.07 0.08 0.08 0.08 0.09 0.08 0.06 0.06 0.05 0.05 0.04 0.05 0.05 0.04 0.03 0.03 0.02 0.02 0.02 0.03 0.04 0.04 0.04 0.04 0.04 0.03 0.03 0.02 0.02 0.02 0.02 0.02 0.02 0.03 0.04
0.07 0.09 0.15 0.17 0.13 0.10 0.08 0.08 0.06 0.06 0.06 0.06 0.08 0.10 0.08 0.07 0.04 0.04 0.04 0.05 0.04 0.04 0.04 0.03 0.03 0.02 0.02 0.03 0.03 0.04 0.04 0.04 0.03 0.03 0.02 0.02 0.02 0.02 0.02 0.02 0.02 0.03 0.03
0.11 0.10 0.12 0.14 0.15 0.10 0.09 0.07 0.06 0.05 0.05 0.06 0.06 0.08 0.10 0.09 0.04 0.04 0.05 0.04 0.04 0.04 0.04 0.04 0.03 0.03 0.03 0.03 0.03 0.03 0.04 0.04 0.04 0.03 0.03 0.03 0.03 0.03 0.03 0.03 0.03 0.03 0.03
0.10 0.13 0.15 0.12 0.20 0.18 0.17 0.13 0.09 0.10 0.10 0.12 0.11 0.10 0.07 0.04 0.03 0.03 0.04 0.04 0.04 0.04 0.04 0.03 0.03 0.03 0.03 0.03 0.04 0.04 0.03 0.03 0.03 0.03 0.03 0.01 0.01 0.02 0.02 0.02 0.02 0.03 0.04
0.12 0.10 0.11 0.14 0.20 0.14 0.13 0.10 0.08 0.09 0.10 0.14 0.16 0.13 0.10 0.06 0.03 0.03 0.02 0.03 0.03 0.02 0.02 0.02 0.02 0.02 0.02 0.02 0.02 0.03 0.03 0.03 0.02 0.02 0.02 0.02 0.02 0.02 0.02 0.01 0.02 0.03 0.03
0.18 0.15 0.11 0.11 0.18 0.12 0.07 0.06 0.06 0.10 0.14 0.13 0.13 0.14 0.15 0.10 0.05 0.03 0.02 0.03 0.03 0.03 0.02 0.02 0.02 0.02 0.01 0.02 0.02 0.02 0.02 0.01 0.01 0.01 0.02 0.02 0.02 0.03 0.02 0.01 0.01 0.02 0.02
0.12 0.11 0.12 0.11 0.09 0.07 0.05 0.04 0.05 0.08 0.11 0.13 0.15 0.15 0.14 0.09 0.05 0.04 0.03 0.03 0.03 0.02 0.02 0.02 0.03 0.02 0.02 0.02 0.02 0.02 0.01 0.01 0.01 0.01 0.02 0.03 0.03 0.03 0.03 0.02 0.01 0.01 0.02
0.06 0.06 0.07 0.09 0.08 0.07 0.06 0.09 0.11 0.12 0.11 0.11 0.13 0.12 0.08 0.06 0.04 0.02 0.02 0.02 0.02 0.01 0.02 0.02 0.02 0.02 0.01 0.01 0.01 0.01 0.01 0.01 0.01 0.01 0.01 0.01 0.02 0.02 0.02 0.02 0.02 0.02 0.03
0.05 0.04 0.04 0.05 0.06 0.06 0.09 0.11 0.10 0.10 0.07 0.05 0.03 0.04 0.04 0.03 0.03 0.02 0.02 0.02 0.02 0.01 0.01 0.01 0.01 0.00 0.00 0.01 0.01 0.02 0.01 0.01 0.01 0.01 0.01 0.01 0.01 0.02 0.03 0.03 0.03 0.04 0.04
0.04 0.02 0.02 0.03 0.04 0.04 0.05 0.05 0.05 0.05 0.03 0.02 0.01 0.01 0.01 0.01 0.01 0.02 0.02 0.01 0.01 0.00 0.00 0.00 0.00 0.00 0.01 0.01 0.01 0.02 0.01 0.01 0.01 0.01 0.01 0.02 0.02 0.02 0.02 0.03 0.03 0.04 0.03
0.04 0.02 0.02 0.02 0.03 0.03 0.06 0.04 0.04 0.03 0.02 0.01 0.01 0.01 0.01 0.01 0.01 0.02 0.01 0.01 0.00 0.00 0.00 0.00 0.01 0.00 0.01 0.01 0.01 0.01 0.01 0.01 0.01 0.01 0.01 0.02 0.03 0.03 0.04 0.04 0.04 0.03 0.02
0.04 0.03 0.02 0.03 0.03 0.06 0.06 0.02 0.03 0.02 0.02 0.01 0.01 0.01 0.01 0.01 0.01 0.02 0.01 0.00 0.00 0.00 0.00 0.01 0.01 0.00 0.00 0.00 0.00 0.00 0.01 0.01 0.01 0.01 0.01 0.02 0.02 0.02 0.02 0.02 0.02 0.02 0.02
0.04 0.02 0.02 0.03 0.03 0.05 0.03 0.02 0.02 0.01 0.01 0.01 0.01 0.01 0.00 0.00 0.01 0.01 0.00 0.00 0.00 0.00 0.01 0.00 0.01 0.01 0.01 0.00 0.00 0.00 0.01 0.01 0.01 0.01 0.02 0.02 0.02 0.01 0.01 0.01 0.01 0.01 0.01
0.04 0.02 0.02 0.02 0.02 0.02 0.02 0.02 0.01 0.01 0.01 0.01 0.01 0.01 0.00 0.00 0.00 0.00 0.01 0.01 0.00 0.01 0.01 0.01 0.01 0.01 0.01 0.01 0.01 0.01 0.01 0.01 0.01 0.01 0.01 0.01 0.01 0.01 0.01 0.01 0.01 0.01 0.01
0.05 0.02 0.02 0.02 0.02 0.02 0.02 0.02 0.01 0.01 0.01 0.01 0.01 0.01 0.01 0.01 0.01 0.01 0.01 0.02 0.02 0.02 0.02 0.01 0.01 0.01 0.01 0.01 0.01 0.01 0.02 0.02 0.02 0.02 0.02 0.02 0.01 0.02 0.02 0.02 0.02 0.03 0.02
MSLP
1008.40 1008.46 1008.53 1008.60 1008.67 1008.76 1008.89 1009.08 1009.37 1009.76 1010.26 1010.85 1011.50 1012.14 1012.74 1013.24 1013.61 1013.87 1014.02 1014.10 1014.15 1014.21 1014.32 1014.47 1014.65 1014.85 1015.04 1015.17 1015.24 1015.23 1015.17 1015.07 1014.95 1014.85 1014.76 1014.68 1014.59 1014.48 1014.31 1014.08 1013.79 1013.45 1013.10
1009.07 1009.11 1009.14 1009.18 1009.20 1009.24 1009.32 1009.47 1009.73 1010.12 1010.64 1011.26 1011.94 1012.62 1013.25 1013.76 1014.14 1014.38 1014.51 1014.55 1014.57 1014.60 1014.67 1014.81 1014.98 1015.18 1015.35 1015.48 1015.55 1015.55 1015.49 1015.39 1015.30 1015.21 1015.15 1015.11 1015.06 1014.98 1014.83 1014.62 1014.32 1013.96 1013.56
1009.71 1009.71 1009.71 1009.72 1009.73 1009.75 1009.81 1009.95 1010.21 1010.60 1011.12 1011.76 1012.45 1013.15 1013.78 1014.30 1014.67 1014.89 1014.99 1015.01 1015.00 1015.01 1015.07 1015.19 1015.35 1015.54 1015.71 1015.84 1015.90 1015.90 1015.85 1015.77 1015.69 1015.63 1015.60 1015.59 1015.58 1015.53 1015.41 1015.20 1014.89 1014.50 1014.05
1010.31 1010.25 1010.23 1010.24 1010.26 1010.30 1010.39 1010.55 1010.82 1011.21 1011.73 1012.36 1013.04 1013.72 1014.33 1014.83 1015.17 1015.38 1015.46 1015.46 1015.43 1015.43 1015.47 1015.57 1015.72 1015.90 1016.06 1016.19 1016.25 1016.25 1016.21 1016.15 1016.10 1016.07 1016.07 1016.09 1016.10 1016.07 1015.96 1015.75 1015.43 1015.00 1014.50
1010.86 1010.75 1010.73 1010.76 1010.83 1010.93 1011.07 1011.27 1011.56 1011.96 1012.47 1013.06 1013.69 1014.32 1014.88 1015.33 1015.64 1015.81 1015.87 1015.86 1015.82 1015.81 1015.84 1015.93 1016.06 1016.23 1016.38 1016.49 1016.56 1016.57 1016.54 1016.50 1016.47 1016.47 1016.49 1016.53 1016.55 1016.53 1016.42 1016.20 1015.85 1015.38 1014.82
1011.39 1011.25 1011.25 1011.34 1011.49 1011.67 1011.88 1012.14 1012.45 1012.84 1013.31 1013.83 1014.39 1014.93 1015.41 1015.79 1016.05 1016.19 1016.23 1016.20 1016.16 1016.13 1016.15 1016.22 1016.34 1016.48 1016.62 1016.72 1016.78 1016.80 1016.78 1016.76 1016.75 1016.77 1016.81 1016.85 1016.88 1016.84 1016.71 1016.47 1016.09 1015.58 1014.98
1011.92 1011.79 1011.83 1012.01 1012.25 1012.53 1012.83 1013.13 1013.46 1013.82 1014.22 1014.66 1015.11 1015.54 1015.92 1016.21 1016.41 1016.50 1016.52 1016.48 1016.43 1016.39 1016.39 1016.45 1016.54 1016.65 1016.76 1016.84 1016.90 1016.91 1016.91 1016.90 1016.90 1016.93 1016.97 1017.01 1017.01 1016.96 1016.80 1016.52 1016.10 1015.56 1014.92
1012.44 1012.36 1012.49 1012.76 1013.11 1013.49 1013.86 1014.21 1014.53 1014.84 1015.16 1015.48 1015.81 1016.11 1016.38 1016.58 1016.70 1016.76 1016.74 1016.70 1016.63 1016.59 1016.58 1016.60 1016.66 1016.74 1016.82 1016.87 1016.91 1016.92 1016.91 1016.91 1016.91 1016.93 1016.96 1016.98 1016.96 1016.87 1016.67 1016.35 1015.90 1015.33 1014.66
1012.97 1012.97 1013.20 1013.58 1014.03 1014.50 1014.92 1015.28 1015.58 1015.83 1016.05 1016.25 1016.45 1016.62 1016.77 1016.89 1016.95 1016.96 1016.93 1016.87 1016.80 1016.75 1016.72 1016.71 1016.74 1016.77 1016.81 1016.83 1016.84 1016.83 1016.82 1016.81 1016.80 1016.81 1016.81 1016.79 1016.73 1016.59 1016.35 1015.99 1015.51 1014.92 1014.24
1013.50 1013.60 1013.93 1014.40 1014.94 1015.46 1015.91 1016.27 1016.53 1016.70 1016.83 1016.92 1016.99 1017.06 1017.11 1017.15 1017.16 1017.14 1017.09 1017.03 1016.95 1016.89 1016.84 1016.80 1016.79 1016.78 1016.77 1016.76 1016.74 1016.71 1016.67 1016.64 1016.62 1016.59 1016.56 1016.50 1016.38 1016.19 1015.90 1015.50 1015.00 1014.40 1013.72
1014.03 1014.23 1014.64 1015.18 1015.76 1016.30 1016.75 1017.08 1017.29 1017.40 1017.44 1017.44 1017.42 1017.40 1017.39 1017.37 1017.34 1017.30 1017.25 1017.18 1017.10 1017.03 1016.96 1016.90 1016.84 1016.80 1016.75 1016.70 1016.64 1016.58 1016.52 1016.47 1016.41 1016.34 1016.26 1016.14 1015.97 1015.72 1015.39 1014.95 1014.43 1013.83 1013.16
1014.56 1014.84 1015.30 1015.86 1016.44 1016.97 1017.39 1017.68 1017.84 1017.90 1017.88 1017.82 1017.75 1017.68 1017.62 1017.57 1017.52 1017.47 1017.41 1017.34 1017.26 1017.17 1017.09 1017.00 1016.91 1016.83 1016.75 1016.67 1016.58 1016.49 1016.40 1016.31 1016.21 1016.09 1015.95 1015.78 1015.54 1015.24 1014.86 1014.40 1013.86 1013.26 1012.61
1015.11 1015.42 1015.88 1016.42 1016.96 1017.44 1017.82 1018.06 1018.19 1018.21 1018.16 1018.07 1017.98 1017.89 1017.82 1017.76 1017.71 1017.65 1017.58 1017.50 1017.41 1017.31 1017.20 1017.09 1016.98 1016.87 1016.77 1016.66 1016.54 1016.42 1016.30 1016.17 1016.02 1015.86 1015.66 1015.42 1015.13 1014.77 1014.34 1013.85 1013.30 1012.71 1012.08
1015.67 1015.96 1016.38 1016.85 1017.32 1017.74 1018.05 1018.25 1018.35 1018.36 1018.31 1018.23 1018.15 1018.07 1018.00 1017.94 1017.88 1017.82 1017.74 1017.64 1017.53 1017.41 1017.28 1017.15 1017.02 1016.89 1016.77 1016.64 1016.50 1016.36 1016.21 1016.04 1015.84 1015.62 1015.36 1015.06 1014.71 1014.30 1013.83 1013.31 1012.75 1012.16 1011.56
1016.22 1016.45 1016.79 1017.17 1017.55 1017.88 1018.14 1018.30 1018.38 1018.40 1018.38 1018.33 1018.27 1018.22 1018.17 1018.11 1018.04 1017.96 1017.85 1017.73 1017.59 1017.44 1017.28 1017.13 1016.99 1016.85 1016.71 1016.57 1016.42 1016.26 1016.08 1015.87 1015.63 1015.35 1015.03 1014.67 1014.26 1013.80 1013.30 1012.76 1012.19 1011.60 1011.01
1016.72 1016.87 1017.11 1017.40 1017.68 1017.93 1018.13 1018.26 1018.34 1018.38 1018.39 1018.38 1018.37 1018.34 1018.30 1018.24 1018.16 1018.04 1017.90 1017.74 1017.56 1017.38 1017.20 1017.02 1016.87 1016.72 1016.57 1016.43 1016.27 1016.08 1015.87 1015.63 1015.34 1015.01 1014.64 1014.22 1013.76 1013.26 1012.72 1012.16 1011.58 1010.99 1010.42
1017.13 1017.20 1017.35 1017.54 1017.74 1017.92 1018.07 1018.19 1018.28 1018.34 1018.38 1018.42 1018.43 1018.43 1018.39 1018.32 1018.21 1018.06 1017.88 1017.67 1017.44 1017.22 1017.01 1016.82 1016.65 1016.50 1016.35 1016.19 1016.02 1015.82 1015.58 1015.30 1014.97 1014.59 1014.17 1013.70 1013.20 1012.66 1012.10 1011.51 1010.93 1010.34 1009.77
1017.39 1017.41 1017.49 1017.61 1017.75 1017.88 1018.00 1018.11 1018.21 1018.29 1018.37 1018.42 1018.46 1018.47 1018.43 1018.34 1018.20 1018.01 1017.77 1017.52 1017.25 1017.00 1016.76 1016.55 1016.37 1016.20 1016.05 1015.88 1015.69 1015.47 1015.21 1014.89 1014.52 1014.10 1013.64 1013.13 1012.59 1012.02 1011.44 1010.84 1010.25 1009.67 1009.11
1017.50 1017.50 1017.55 1017.64 1017.74 1017.84 1017.95 1018.05 1018.15 1018.25 1018.33 1018.40 1018.45 1018.45 1018.40 1018.29 1018.11 1017.89 1017.62 1017.33 1017.03 1016.75 1016.49 1016.26 1016.06 1015.88 1015.71 1015.53 1015.32 1015.08 1014.79 1014.44 1014.03 1013.58 1013.08 1012.54 1011.98 1011.39 1010.80 1010.20 1009.61 1009.03 1008.47
1017.46 1017.47 1017.53 1017.62 1017.71 1017.82 1017.91 1018.01 1018.11 1018.20 1018.28 1018.35 1018.39 1018.38 1018.31 1018.18 1017.99 1017.74 1017.45 1017.13 1016.81 1016.51 1016.23 1015.99 1015.77 1015.58 1015.38 1015.18 1014.95 1014.68 1014.35 1013.98 1013.55 1013.07 1012.55 1012.00 1011.43 1010.84 1010.24 1009.65 1009.06 1008.49 1007.94
1017.29 1017.35 1017.45 1017.57 1017.68 1017.79 1017.89 1017.98 1018.07 1018.15 1018.22 1018.27 1018.29 1018.26 1018.18 1018.04 1017.84 1017.58 1017.28 1016.96 1016.64 1016.32 1016.03 1015.77 1015.53 1015.31 1015.09 1014.85 1014.59 1014.29 1013.95 1013.55 1013.11 1012.62 1012.10 1011.56 1010.99 1010.41 1009.83 1009.25 1008.67 1008.11 1007.56
1017.05 1017.18 1017.34 1017.50 1017.64 1017.77 1017.87 1017.95 1018.02 1018.08 1018.13 1018.16 1018.16 1018.12 1018.03 1017.89 1017.69 1017.44 1017.15 1016.83 1016.51 1016.19 1015.89 1015.60 1015.33 1015.08 1014.82 1014.55 1014.26 1013.94 1013.57 1013.17 1012.73 1012.26 1011.76 1011.24 1010.71 1010.16 1009.60 1009.04 1008.49 1007.94 1007.39
1016.76 1016.97 1017.19 1017.40 1017.58 1017.72 1017.83 1017.90 1017.95 1017.99 1018.02 1018.02 1018.01 1017.96 1017.87 1017.74 1017.55 1017.32 1017.05 1016.74 1016.42 1016.09 1015.77 1015.46 1015.15 1014.86 1014.56 1014.25 1013.93 1013.59 1013.23 1012.84 1012.43 1011.99 1011.54 1011.07 1010.58 1010.09 1009.58 1009.05 1008.52 1007.98 1007.45
1016.47 1016.74 1017.01 1017.26 1017.46 1017.62 1017.73 1017.80 1017.84 1017.86 1017.87 1017.87 1017.85 1017.80 1017.72 1017.60 1017.43 1017.21 1016.95 1016.66 1016.33 1015.99 1015.65 1015.30 1014.95 1014.61 1014.27 1013.93 1013.59 1013.24 1012.89 1012.54 1012.17 1011.80 1011.41 1011.02 1010.61 1010.18 1009.73 1009.25 1008.75 1008.24 1007.71
1016.16 1016.46 1016.76 1017.03 1017.25 1017.42 1017.54 1017.61 1017.66 1017.68 1017.69 1017.68 1017.66 1017.62 1017.55 1017.45 1017.30 1017.09 1016.84 1016.54 1016.21 1015.84 1015.46 1015.07 1014.68 1014.29 1013.92 1013.55 1013.20 1012.87 1012.55 1012.25 1011.95 1011.66 1011.36 1011.06 1010.74 1010.40 1010.02 1009.61 1009.15 1008.67 1008.15
1015.81 1016.11 1016.40 1016.68 1016.91 1017.08 1017.22 1017.31 1017.36 1017.40 1017.43 1017.44 1017.44 1017.42 1017.37 1017.27 1017.13 1016.93 1016.67 1016.36 1016.00 1015.61 1015.19 1014.75 1014.32 1013.90 1013.50 1013.13 1012.79 1012.48 1012.22 1011.98 1011.77 1011.57 1011.38 1011.18 1010.96 1010.71 1010.42 1010.07 1009.67 1009.21 1008.71
Thickness
5758 5758 5757 5755 5752 5748 5745 5741 5738 5735 5732 5728 5724 5720 5716 5715 5713 5712 5710 5708 5705 5702 5698 5695 5691 5688 5684 5681 5678 5674 5671 5668 5666 5663 5662 5664 5666 5665 5665 5664 5663 5663 5662
5751 5751 5751 5750 5746 5742 5739 5737 5734 5731 5729 5726 5723 5719 5715 5711 5709 5708 5706 5704 5701 5698 5694 5690 5687 5684 5680 5676 5672 5668 5664 5662 5660 5656 5652 5650 5652 5656 5659 5658 5657 5657 5657
5746 5743 5744 5743 5741 5737 5734 5733 5730 5727 5725 5723 5718 5715 5710 5706 5703 5701 5699 5699 5697 5694 5690 5686 5683 5680 5675 5671 5668 5664 5660 5655 5654 5652 5647 5642 5640 5642 5648 5650 5651 5650 5650
5740 5738 5738 5736 5735 5733 5731 5729 5726 5724 5721 5718 5714 5709 5704 5700 5698 5697 5695 5693 5691 5688 5685 5682 5679 5674 5671 5667 5664 5662 5657 5653 5648 5646 5644 5642 5639 5635 5636 5640 5642 5644 5644
5735 5734 5733 5732 5731 5729 5726 5724 5722 5718 5715 5712 5709 5704 5700 5697 5694 5692 5690 5687 5684 5683 5680 5677 5674 5670 5666 5663 5660 5657 5654 5650 5645 5641 5639 5637 5635 5632 5629 5630 5633 5635 5638
5730 5730 5729 5728 5726 5724 5721 5719 5715 5713 5710 5707 5704 5699 5696 5693 5689 5687 5684 5681 5679 5677 5675 5672 5669 5666 5662 5658 5655 5653 5650 5647 5643 5640 5636 5633 5630 5628 5625 5624 5625 5627 5631
5724 5722 5721 5720 5718 5716 5714 5712 5709 5706 5705 5702 5698 5696 5693 5690 5686 5682 5679 5676 5673 5670 5669 5667 5664 5661 5658 5655 5652 5649 5646 5643 5640 5637 5634 5632 5629 5627 5624 5621 5620 5620 5624
5717 5717 5716 5713 5711 5709 5708 5706 5703 5700 5699 5697 5693 5692 5689 5686 5682 5679 5675 5671 5669 5667 5666 5663 5660 5658 5655 5652 5649 5645 5642 5640 5637 5635 5632 5629 5627 5624 5622 5618 5615 5614 5615
5710 5710 5708 5707 5705 5703 5701 5700 5698 5695 5695 5692 5689 5686 5684 5681 5678 5674 5671 5668 5666 5664 5662 5659 5656 5653 5651 5648 5645 5641 5639 5636 5633 5631 5629 5626 5624 5621 5619 5616 5613 5609 5607
5701 5701 5700 5700 5699 5697 5695 5694 5692 5691 5689 5688 5685 5682 5679 5675 5671 5669 5665 5663 5662 5660 5657 5655 5652 5650 5647 5644 5641 5638 5636 5633 5630 5628 5625 5622 5620 5618 5615 5613 5610 5607 5604
5692 5692 5694 5694 5693 5691 5689 5687 5686 5685 5683 5681 5679 5676 5674 5670 5668 5664 5661 5659 5658 5655 5653 5651 5648 5645 5643 5640 5636 5633 5632 5629 5627 5624 5622 5619 5617 5614 5612 5610 5607 5604 5602
5687 5687 5688 5688 5687 5685 5684 5682 5681 5680 5678 5676 5674 5671 5669 5666 5663 5660 5658 5656 5653 5651 5649 5647 5644 5642 5639 5636 5633 5630 5628 5625 5622 5620 5617 5615 5613 5610 5608 5605 5603 5601 5599
5684 5683 5683 5683 5682 5680 5679 5677 5676 5675 5673 5671 5668 5665 5663 5661 5658 5656 5654 5653 5650 5648 5646 5644 5641 5638 5635 5632 5630 5627 5624 5622 5619 5616 5613 5611 5608 5606 5603 5601 5599 5597 5597
5679 5679 5677 5678 5677 5676 5674 5673 5671 5670 5669 5667 5664 5661 5657 5656 5655 5653 5651 5649 5647 5644 5642 5640 5638 5634 5631 5629 5626 5623 5620 5618 5615 5612 5610 5607 5605 5602 5600 5597 5595 5593 5591
5673 5674 5674 5673 5673 5672 5670 5669 5668 5667 5666 5663 5660 5657 5654 5653 5651 5649 5647 5645 5643 5642 5639 5637 5633 5630 5628 5625 5622 5619 5617 5614 5611 5609 5606 5605 5603 5600 5597 5595 5592 5589 5586
5669 5671 5671 5670 5669 5668 5668 5666 5665 5663 5662 5659 5657 5654 5652 5650 5647 5645 5643 5641 5640 5638 5636 5633 5629 5626 5624 5622 5619 5616 5613 5609 5607 5605 5603 5601 5598 5596 5594 5592 5590 5587 5583
5664 5665 5666 5667 5666 5666 5666 5663 5662 5661 5658 5656 5654 5652 5650 5647 5645 5643 5640 5637 5635 5634 5631 5628 5624 5621 5620 5618 5615 5613 5609 5605 5603 5601 5598 5597 5595 5592 5589 5587 5585 5583 5581
5661 5661 5663 5665 5665 5666 5665 5663 5661 5658 5656 5654 5652 5650 5648 5645 5642 5639 5636 5634 5632 5629 5626 5624 5621 5618 5617 5615 5612 5609 5606 5603 5600 5598 5595 5592 5590 5588 5585 5582 5579 5578 5577
5659 5661 5662 5663 5663 5664 5663 5661 5658 5656 5653 5651 5649 5648 5646 5642 5638 5636 5633 5631 5628 5625 5623 5620 5617 5615 5613 5612 5609 5607 5603 5599 5597 5595 5593 5589 5586 5584 5580 5576 5573 5572 5572
5659 5660 5661 5661 5661 5661 5661 5658 5655 5653 5651 5650 5649 5647 5644 5640 5637 5634 5631 5629 5625 5622 5620 5617 5614 5612 5610 5609 5606 5603 5598 5595 5592 5590 5588 5586 5582 5580 5576 5571 5568 5566 5566
5659 5660 5660 5659 5659 5660 5658 5655 5654 5652 5652 5650 5648 5646 5643 5639 5636 5632 5629 5626 5623 5619 5616 5614 5612 5610 5607 5605 5603 5599 5594 5590 5587 5585 5583 5581 5578 5575 5572 5568 5564 5562 5561
5657 5658 5657 5657 5658 5658 5656 5654 5652 5652 5651 5648 5646 5643 5640 5638 5635 5630 5626 5623 5619 5616 5612 5610 5608 5606 5604 5601 5599 5595 5591 5587 5582 5580 5578 5576 5573 5570 5567 5564 5562 5559 5556
5654 5656 5655 5655 5655 5656 5655 5652 5651 5651 5649 5646 5643 5640 5638 5635 5632 5628 5624 5620 5617 5613 5610 5606 5603 5602 5601 5598 5595 5592 5588 5584 5579 5576 5574 5571 5567 5564 5562 5561 5558 5555 5552
5652 5653 5653 5652 5653 5654 5654 5652 5651 5650 5647 5644 5641 5638 5634 5631 5628 5625 5622 5618 5614 5611 5608 5604 5601 5598 5596 5594 5591 5587 5583 5579 5575 5570 5568 5565 5562 5559 5557 5555 5554 5551 5548
5651 5651 5651 5651 5651 5652 5653 5652 5651 5648 5645 5642 5639 5636 5633 5629 5625 5623 5619 5617 5614 5611 5607 5604 5600 5596 5593 5592 5588 5582 5579 5575 5570 5566 5562 5560 5558 5555 5553 5551 5549 5546 5544
5649 5650 5650 5650 5651 5651 5651 5651 5650 5647 5643 5639 5636 5633 5630 5627 5624 5620 5617 5616 5614 5612 5609 5605 5600 5596 5593 5589 5585 5581 5577 5572 5567 5562 5557 5555 5552 5550 5548 5546 5544 5542 5539